Location: Bremen
(53.0793°N, 8.8017°E)
Time: 05:21:13
(UTC+01:00)

Tiros 1 - Pass Details

Date: 09 December 2021
Orbit: 629 x 664 km, 48.4° (Epoch: 25 January)

Event Time Altitude Azimuth Distance (km) Brightness Sun altitude
Rises 18:32:36 0° 244° (WSW) 2,916 11.9 -20.3°
Reaches altitude 10° 18:35:00 10° 237° (WSW) 2,013 10.7 -20.7°
Maximum altitude 18:39:21 42° 167° (SSE) 916 7.8 -21.3°
Enters shadow 18:40:10 38° 140° (SE) 977 7.8 -21.5°
